{"data":{"norad_id":67203,"epoch":"2026-09-20T11:50:07.429920Z","epoch_age_seconds":78830,"freshness":"FRESH","line1":"1 67203U 25304M   26263.49314155  .00004392  00000+0  37552-3 0  9995","line2":"2 67203  70.0015  43.3103 0002859 270.0290  90.0541 14.98344212 43061","mean_motion":14.98344212,"eccentricity":0.0002859,"inclination_deg":70.0015,"raan_deg":43.3103,"arg_perigee_deg":270.029,"mean_anomaly_deg":90.0541,"bstar":0.00037552,"rev_number":4306,"period_min":96.106087537648,"perigee_km":570.02489427168,"apogee_km":573.99898943663,"semimajor_km":6950.1489418542,"source":"CELESTRAK","updated_at":"2026-09-21T09:00:36.137370Z"}}